KD2RHT-13 Weather Reports


Display with metric or nautical units.
time (UTC)temp
F
wind
direction
speed
MPH
gust
MPH
rain 1hr
in
rain 24hr
in
rain mn
in
humidity
%
barometer
mb
20260831203638 69 164 0.0 0.0 0.00 0.01 0.01 94 1020.0
20260831203137 69 154 0.0 1.0 0.00 0.01 0.01 94 1019.6
20260831202636 69 224 1.0 1.0 0.00 0.01 0.01 94 1020.0
20260831202131 69 343 2.0 2.0 0.00 0.01 0.01 94 1019.3
20260831201630 69 85 2.0 3.0 0.00 0.01 0.01 94 1019.6
20260831201125 69 181 1.0 2.0 0.00 0.01 0.01 94 1019.6
20260831200622 69 158 0.0 0.0 0.00 0.01 0.01 94 1019.6
20260831200121 69 246 2.0 2.0 0.00 0.01 0.01 94 1019.6
20260831195617 69 170 2.0 2.0 0.00 0.01 0.01 93 1019.3
20260831195112 69 158 0.0 0.0 0.00 0.01 0.01 93 1019.3
20260831194607 70 202 0.0 0.0 0.00 0.01 0.01 93 1019.6
20260831194102 69 157 0.0 0.0 0.00 0.01 0.01 93 1019.6
20260831193557 70 160 0.0 0.0 0.00 0.01 0.01 93 1019.6
20260831193057 70 171 1.0 1.0 0.00 0.01 0.01 92 1020.0
20260831192552 70 169 1.0 1.0 0.00 0.01 0.01 92 1020.0
20260831192048 70 141 1.0 1.0 0.00 0.01 0.01 92 1020.0
20260831191543 70 161 0.0 0.0 0.00 0.01 0.01 92 1020.0
20260831191039 71 162 1.0 2.0 0.00 0.01 0.01 92 1020.0
20260831190534 70 163 0.0 0.0 0.00 0.01 0.01 92 1020.0
20260831190033 70 161 0.0 1.0 0.00 0.01 0.01 93 1020.0
20260831185529 70 141 2.0 2.0 0.00 0.01 0.01 93 1020.3
20260831185024 70 157 0.0 1.0 0.00 0.01 0.01 93 1020.0
20260831184518 70 170 2.0 2.0 0.00 0.01 0.01 93 1020.3
20260831184014 70 187 1.0 1.0 0.00 0.01 0.01 93 1020.3
20260831183513 70 160 0.0 1.0 0.00 0.01 0.01 93 1020.3
20260831183013 69 159 0.0 0.0 0.00 0.01 0.01 93 1020.3
20260831182507 69 191 0.0 1.0 0.00 0.01 0.01 93 1020.3
20260831182003 69 168 0.0 0.0 0.00 0.01 0.01 93 1020.6
20260831181453 69 133 0.0 1.0 0.00 0.01 0.01 93 1020.3
20260831180953 69 176 3.0 5.0 0.00 0.01 0.01 92 1020.6
20260831180447 69 183 1.0 1.0 0.00 0.01 0.01 92 1020.3
20260831175946 69 173 1.0 1.0 0.00 0.01 0.01 93 1020.3
20260831175443 69 162 0.0 1.0 0.00 0.01 0.01 94 1020.3
20260831174938 69 163 0.0 0.0 0.00 0.01 0.01 94 1020.6
20260831174434 69 181 0.0 1.0 0.00 0.01 0.01 94 1021.0
20260831173933 69 159 0.0 0.0 0.00 0.01 0.01 94 1021.0
20260831173432 69 164 0.0 0.0 0.00 0.01 0.01 94 1021.0
20260831172928 69 167 0.0 0.0 0.00 0.01 0.01 93 1021.0
20260831172424 69 167 1.0 1.0 0.00 0.01 0.01 93 1021.0
20260831171923 69 169 1.0 1.0 0.00 0.01 0.01 93 1021.0
20260831171420 70 166 0.0 0.0 0.00 0.01 0.01 94 1021.3
20260831170916 70 182 1.0 2.0 0.00 0.01 0.01 93 1021.0
20260831170412 70 189 1.0 1.0 0.00 0.01 0.01 93 1021.3
20260831165908 70 175 0.0 0.0 0.00 0.01 0.01 93 1021.0
20260831165404 70 156 0.0 1.0 0.00 0.01 0.01 93 1021.3
20260831164901 70 154 1.0 1.0 0.00 0.01 0.01 93 1021.3
20260831164356 70 165 1.0 1.0 0.00 0.01 0.01 92 1021.3
20260831163852 70 153 1.0 2.0 0.00 0.01 0.01 92 1021.3
20260831163347 70 162 0.0 1.0 0.00 0.01 0.01 93 1021.3
20260831162845 70 164 0.0 0.0 0.00 0.01 0.01 92 1021.3
20260831162341 70 177 2.0 2.0 0.00 0.01 0.01 92 1021.3
20260831161839 70 121 0.0 1.0 0.00 0.01 0.01 92 1021.3
20260831161331 70 182 2.0 2.0 0.00 0.01 0.01 92 1021.3
20260831160826 70 164 1.0 1.0 0.00 0.01 0.01 92 1021.7
20260831160325 70 155 1.0 2.0 0.00 0.01 0.01 93 1021.7
20260831155821 70 172 1.0 1.0 0.00 0.01 0.01 93 1021.3
20260831155320 70 161 3.0 3.0 0.00 0.01 0.01 92 1021.7
20260831154816 70 167 0.0 1.0 0.00 0.01 0.01 93 1021.3
20260831154313 70 197 3.0 3.0 0.00 0.01 0.01 93 1021.3
20260831153811 71 180 1.0 1.0 0.05 0.01 0.01 93 1021.7
20260831153307 70 150 0.0 1.0 0.05 0.01 0.01 94 1021.7
20260831152803 70 168 1.0 1.0 0.00 0.00 0.00 93 1021.3
20260831152258 70 179 2.0 2.0 0.00 0.00 0.00 93 1021.7
20260831151754 69 164 1.0 1.0 0.00 0.00 0.00 93 1021.7
20260831151252 69 179 1.0 1.0 0.00 0.00 0.00 93 1021.7
20260831150748 69 161 0.0 0.0 0.00 0.00 0.00 92 1021.7
20260831150243 69 164 0.0 0.0 0.00 0.00 0.00 92 1021.7
20260831145742 70 191 1.0 2.0 0.00 0.00 0.00 91 1021.7
20260831145239 70 161 0.0 0.0 0.00 0.00 0.00 91 1021.7
20260831144734 70 161 0.0 1.0 0.00 0.00 0.00 91 1021.7
20260831144230 70 160 0.0 1.0 0.00 0.00 0.00 92 1022.1
20260831143730 69 161 0.0 0.0 0.00 0.00 0.00 92 1021.7
20260831143225 69 162 0.0 0.0 0.00 0.00 0.00 93 1021.7
20260831142721 69 164 1.0 1.0 0.00 0.00 0.00 93 1021.3
20260831142216 69 184 2.0 2.0 0.00 0.00 0.00 93 1021.0
20260831141715 69 158 3.0 3.0 0.00 0.00 0.00 93 1021.3
20260831141210 69 171 1.0 1.0 0.00 0.00 0.00 94 1021.3
20260831140710 68 162 0.0 0.0 0.00 0.00 0.00 95 1021.3
20260831140205 68 168 1.0 2.0 0.00 0.00 0.00 96 1021.3
20260831135703 68 179 1.0 1.0 0.00 0.00 0.00 96 1021.3
20260831135158 68 162 0.0 0.0 0.00 0.00 0.00 97 1021.7
20260831134654 68 161 0.0 0.0 0.00 0.00 0.00 98 1021.3
20260831134144 67 156 0.0 0.0 0.00 0.00 0.00 98 1021.7
20260831133643 67 160 0.0 1.0 0.00 0.00 0.00 98 1021.3
20260831133138 67 155 0.0 0.0 0.00 0.00 0.00 99 1021.7
20260831132634 66 187 0.0 1.0 0.00 0.00 0.00 99 1021.3
20260831132133 66 163 0.0 0.0 0.00 0.00 0.00 99 1021.3
20260831131628 66 174 0.0 0.0 0.00 0.00 0.00 99 1021.3
20260831131125 66 163 0.0 0.0 0.00 0.00 0.00 99 1021.3
20260831130619 65 160 0.0 0.0 0.00 0.00 0.00 99 1021.3
20260831130115 65 167 0.0 0.0 0.00 0.00 0.00 99 1021.7
20260831125612 65 160 0.0 0.0 0.00 0.00 0.00 99 1021.7
20260831125108 64 164 0.0 0.0 0.00 0.00 0.00 99 1021.7
20260831124605 64 169 0.0 0.0 0.00 0.00 0.00 99 1021.7
20260831124100 64 167 0.0 0.0 0.00 0.00 0.00 99 1021.3
20260831123559 64 167 0.0 0.0 0.00 0.00 0.00 99 1021.3
20260831123054 64 163 0.0 0.0 0.00 0.00 0.00 99 1021.7
20260831122549 64 161 0.0 0.0 0.00 0.00 0.00 99 1021.7
20260831122045 63 162 0.0 0.0 0.00 0.00 0.00 99 1022.1
20260831121544 63 161 0.0 0.0 0.00 0.00 0.00 99 1021.7
20260831121040 63 158 0.0 0.0 0.00 0.00 0.00 99 1022.1
20260831120540 63 161 0.0 0.0 0.00 0.00 0.00 99 1021.7
20260831120036 63 158 0.0 0.0 0.00 0.00 0.00 99 1022.1
20260831115531 63 162 0.0 0.0 0.00 0.00 0.00 99 1022.1
20260831115027 63 162 0.0 0.0 0.00 0.00 0.00 99 1022.1
20260831114525 63 158 0.0 0.0 0.00 0.00 0.00 99 1022.1
20260831114021 63 158 0.0 0.0 0.00 0.00 0.00 99 1022.1
20260831113520 63 159 0.0 0.0 0.00 0.00 0.00 99 1022.1
20260831113016 63 159 0.0 0.0 0.00 0.00 0.00 99 1022.1
20260831112515 63 161 0.0 0.0 0.00 0.00 0.00 99 1022.1
20260831112010 63 158 0.0 0.0 0.00 0.00 0.00 99 1022.1
20260831111506 63 157 0.0 0.0 0.00 0.00 0.00 99 1021.7
20260831111002 63 160 0.0 0.0 0.00 0.00 0.00 99 1021.7
20260831110502 63 158 0.0 0.0 0.00 0.00 0.00 99 1021.7
20260831110001 63 159 0.0 0.0 0.00 0.00 0.00 99 1022.1
20260831105456 63 158 0.0 0.0 0.00 0.00 0.00 99 1021.7
20260831104957 62 157 0.0 0.0 0.00 0.00 0.00 99 1022.1
20260831104453 62 153 0.0 0.0 0.00 0.00 0.00 99 1021.7
20260831103948 62 155 0.0 0.0 0.00 0.00 0.00 99 1021.7
20260831103443 62 157 0.0 0.0 0.00 0.00 0.00 99 1021.7
20260831102939 62 158 0.0 0.0 0.00 0.00 0.00 99 1021.3
20260831102439 62 158 0.0 0.0 0.00 0.00 0.00 99 1021.7
20260831101934 62 157 0.0 0.0 0.00 0.00 0.00 99 1021.3
20260831101429 62 161 0.0 0.0 0.00 0.00 0.00 99 1021.3
20260831100925 62 158 0.0 0.0 0.00 0.00 0.00 99 1021.0
20260831100421 62 157 0.0 0.0 0.00 0.00 0.00 99 1021.3
20260831095915 62 161 0.0 0.0 0.00 0.00 0.00 99 1021.3
20260831095415 62 157 0.0 0.0 0.00 0.00 0.00 99 1021.0
20260831094910 62 161 0.0 0.0 0.00 0.00 0.00 99 1021.3
20260831094406 62 165 0.0 0.0 0.00 0.00 0.00 99 1021.0
20260831093902 62 161 0.0 0.0 0.00 0.00 0.00 99 1021.0
20260831093356 62 157 0.0 0.0 0.00 0.00 0.00 99 1021.0
20260831092853 62 158 0.0 0.0 0.00 0.00 0.00 99 1021.3
20260831092348 62 158 0.0 0.0 0.00 0.00 0.00 99 1021.0
20260831091843 62 158 0.0 0.0 0.00 0.00 0.00 99 1021.3
20260831091339 62 157 0.0 0.0 0.00 0.00 0.00 99 1021.3
20260831090834 62 157 0.0 0.0 0.00 0.00 0.00 99 1021.3
20260831090330 62 158 0.0 0.0 0.00 0.00 0.00 99 1021.3
20260831085826 62 161 0.0 0.0 0.00 0.00 0.00 99 1021.3
20260831085320 62 158 0.0 0.0 0.00 0.00 0.00 99 1021.0
20260831084815 63 161 0.0 0.0 0.00 0.00 0.00 99 1021.3
20260831084312 63 161 0.0 0.0 0.00 0.00 0.00 99 1021.3
20260831083807 63 157 0.0 0.0 0.00 0.00 0.00 99 1021.0
20260831083303 63 160 0.0 0.0 0.00 0.00 0.00 99 1021.0
20260831082801 63 161 0.0 0.0 0.00 0.00 0.00 99 1021.3
20260831082256 63 158 0.0 0.0 0.00 0.00 0.00 99 1021.0
20260831081752 63 157 0.0 0.0 0.00 0.00 0.00 99 1021.3
20260831081248 63 161 0.0 0.0 0.00 0.00 0.00 99 1021.3
20260831080743 63 161 0.0 0.0 0.00 0.00 0.00 99 1021.7
20260831080237 62 161 0.0 0.0 0.00 0.00 0.00 99 1021.3
20260831075733 62 158 0.0 0.0 0.00 0.00 0.00 99 1021.3
20260831075229 62 158 0.0 0.0 0.00 0.00 0.00 99 1021.3
20260831074729 63 158 0.0 0.0 0.00 0.00 0.00 99 1021.0
20260831074228 63 158 0.0 0.0 0.00 0.00 0.00 99 1021.3
20260831073724 63 157 0.0 0.0 0.00 0.00 0.00 99 1021.0
20260831073223 63 162 0.0 0.0 0.00 0.00 0.00 99 1021.0
20260831072718 63 156 0.0 0.0 0.00 0.00 0.00 99 1021.0
20260831072215 63 158 0.0 0.0 0.00 0.00 0.00 99 1021.0
20260831071714 63 157 0.0 0.0 0.00 0.00 0.00 99 1021.0
20260831071209 63 157 0.0 0.0 0.00 0.00 0.00 99 1021.7
20260831070708 63 157 0.0 0.0 0.00 0.00 0.00 99 1021.3
20260831070202 63 157 0.0 0.0 0.00 0.00 0.00 99 1021.3
20260831065702 63 157 0.0 0.0 0.00 0.00 0.00 99 1021.3
20260831065201 63 158 0.0 0.0 0.00 0.00 0.00 99 1021.3
20260831064655 63 158 0.0 0.0 0.00 0.00 0.00 99 1021.3
20260831064151 63 158 0.0 0.0 0.00 0.00 0.00 99 1021.3
20260831063647 63 158 0.0 0.0 0.00 0.00 0.00 99 1021.0
20260831063142 64 161 0.0 0.0 0.00 0.00 0.00 99 1021.0
20260831062643 64 161 0.0 0.0 0.00 0.00 0.00 99 1021.3
20260831062142 64 164 0.0 0.0 0.00 0.00 0.00 99 1021.3
20260831061640 64 163 0.0 0.0 0.00 0.00 0.00 99 1021.3
20260831061136 64 165 0.0 0.0 0.00 0.00 0.00 99 1021.3
20260831060633 63 157 0.0 0.0 0.00 0.00 0.00 99 1021.7
20260831060132 63 157 0.0 0.0 0.00 0.00 0.00 99 1021.7
20260831055631 64 158 0.0 0.0 0.00 0.00 0.00 99 1021.7
20260831055127 64 158 0.0 0.0 0.00 0.00 0.00 99 1021.3
20260831054626 64 161 0.0 0.0 0.00 0.00 0.00 99 1022.1
20260831054121 64 165 0.0 0.0 0.00 0.00 0.00 99 1021.7
20260831053620 64 158 0.0 0.0 0.00 0.00 0.00 99 1022.1
20260831053114 64 157 0.0 0.0 0.00 0.00 0.00 99 1022.1
20260831052613 64 161 0.0 0.0 0.00 0.00 0.00 99 1022.1
20260831052113 64 161 0.0 0.0 0.00 0.00 0.00 99 1021.7
20260831051611 64 159 0.0 0.0 0.00 0.00 0.00 99 1022.1
20260831051110 64 158 0.0 0.0 0.00 0.00 0.00 99 1022.1
20260831050610 64 158 0.0 0.0 0.00 0.00 0.00 99 1022.1
20260831050108 64 158 0.0 0.0 0.00 0.00 0.00 99 1022.1
20260831045608 64 160 0.0 0.0 0.00 0.00 0.00 99 1022.4
20260831045103 64 161 0.0 0.0 0.00 0.00 0.00 99 1022.1
20260831044559 64 161 0.0 0.0 0.00 0.00 0.00 99 1022.4
20260831044054 64 160 0.0 0.0 0.00 0.00 0.00 99 1022.1
20260831043549 64 158 0.0 0.0 0.00 0.00 0.00 99 1022.1
20260831043044 64 161 0.0 0.0 0.00 0.00 0.00 99 1022.1
20260831042543 64 163 0.0 0.0 0.00 0.00 0.00 99 1022.1
20260831042039 64 162 0.0 0.0 0.00 0.00 0.00 99 1021.7
20260831041534 63 161 0.0 0.0 0.00 0.00 0.00 99 1021.7
20260831041033 63 161 0.0 0.0 0.00 0.00 0.00 99 1021.7
20260831040528 63 161 0.0 0.0 0.00 0.00 0.00 99 1021.7
20260831040027 63 161 0.0 0.0 0.00 0.04 0.04 99 1021.7
20260831035525 63 164 0.0 0.0 0.00 0.04 0.04 99 1021.7
20260831035021 63 161 0.0 0.0 0.00 0.04 0.04 99 1022.1
20260831034515 62 161 0.0 0.0 0.00 0.04 0.04 99 1021.7
20260831034010 62 157 0.0 0.0 0.00 0.04 0.04 99 1022.1
20260831033506 62 157 0.0 0.0 0.00 0.04 0.04 99 1021.7
20260831033001 63 157 0.0 0.0 0.00 0.04 0.04 99 1021.7
20260831032501 63 158 0.0 0.0 0.00 0.04 0.04 99 1021.7
20260831031956 63 161 0.0 0.0 0.00 0.04 0.04 99 1022.1
20260831031456 63 157 0.0 0.0 0.00 0.04 0.04 99 1022.1
20260831030955 63 161 0.0 0.0 0.00 0.04 0.04 99 1021.7
20260831030454 64 161 0.0 0.0 0.00 0.04 0.04 99 1021.7
20260831025953 64 162 0.0 0.0 0.00 0.04 0.04 99 1021.7
20260831025452 64 161 0.0 0.0 0.00 0.04 0.04 99 1021.7
20260831024948 64 161 0.0 0.0 0.00 0.04 0.04 99 1021.7
20260831024443 63 161 0.0 0.0 0.00 0.04 0.04 99 1021.7
20260831023942 63 160 0.0 0.0 0.00 0.04 0.04 99 1021.7
20260831023440 63 161 0.0 0.0 0.00 0.04 0.04 99 1021.7
20260831022936 64 161 0.0 0.0 0.00 0.04 0.04 99 1021.7
20260831022435 64 161 0.0 0.0 0.00 0.04 0.04 99 1021.7
20260831021930 64 161 0.0 0.0 0.00 0.04 0.04 99 1021.7
20260831021423 64 161 0.0 0.0 0.00 0.04 0.04 99 1021.7
20260831020920 64 161 0.0 0.0 0.00 0.04 0.04 99 1021.7
20260831020419 64 161 0.0 0.0 0.00 0.04 0.04 99 1021.7
20260831015914 64 161 0.0 0.0 0.00 0.04 0.04 99 1021.7
20260831015411 64 161 0.0 0.0 0.00 0.04 0.04 99 1021.7
20260831014910 64 161 0.0 0.0 0.00 0.04 0.04 99 1021.7
20260831014405 65 161 0.0 0.0 0.00 0.04 0.04 99 1021.7
20260831013901 65 161 0.0 0.0 0.00 0.04 0.04 99 1021.7
20260831013356 65 160 0.0 0.0 0.00 0.04 0.04 99 1021.7
20260831012856 65 158 0.0 0.0 0.00 0.04 0.04 99 1021.7
20260831012352 65 161 0.0 0.0 0.00 0.04 0.04 99 1021.3
20260831011851 65 166 0.0 0.0 0.00 0.04 0.04 99 1021.3
20260831011346 65 161 0.0 0.0 0.00 0.04 0.04 99 1021.7
20260831010842 65 161 0.0 0.0 0.00 0.04 0.04 99 1021.3
20260831010342 65 161 0.0 0.0 0.00 0.04 0.04 99 1021.3
20260831005838 65 162 0.0 0.0 0.00 0.04 0.04 99 1021.3
20260831005333 65 165 0.0 0.0 0.00 0.04 0.04 99 1021.3
20260831004828 65 162 0.0 0.0 0.00 0.04 0.04 99 1021.3
20260831004324 65 161 0.0 0.0 0.00 0.04 0.04 99 1021.3
20260831003820 65 161 0.0 0.0 0.00 0.04 0.04 99 1021.7
20260831003316 65 161 0.0 0.0 0.00 0.04 0.04 99 1021.3
20260831002815 65 161 0.0 0.0 0.00 0.04 0.04 99 1021.3
20260831002314 65 161 0.0 0.0 0.00 0.04 0.04 99 1021.0
20260831001810 65 168 0.0 0.0 0.00 0.04 0.04 99 1021.0
20260831001305 65 157 0.0 0.0 0.00 0.04 0.04 99 1021.0
20260831000803 66 161 0.0 0.0 0.00 0.04 0.04 99 1021.0
20260831000303 66 168 0.0 0.0 0.00 0.04 0.04 99 1021.0
20260830235801 66 165 0.0 0.0 0.00 0.04 0.04 99 1020.6
20260830235256 66 161 0.0 0.0 0.00 0.04 0.04 99 1021.0
20260830234751 66 161 0.0 0.0 0.00 0.04 0.04 99 1021.0
20260830234247 67 161 0.0 0.0 0.00 0.04 0.04 99 1020.6
20260830233742 67 161 0.0 0.0 0.00 0.04 0.04 99 1020.6
20260830233238 67 162 0.0 0.0 0.00 0.04 0.04 99 1020.3
20260830232733 67 158 0.0 0.0 0.00 0.04 0.04 99 1020.6
20260830232229 67 167 0.0 0.0 0.00 0.04 0.04 99 1020.6
20260830231725 67 161 0.0 0.0 0.00 0.04 0.04 99 1020.6
20260830231225 67 161 0.0 0.0 0.00 0.04 0.04 99 1020.3
20260830230720 67 161 0.0 0.0 0.00 0.04 0.04 99 1020.6
20260830230215 67 173 0.0 0.0 0.00 0.04 0.04 99 1020.3
20260830225709 67 161 0.0 0.0 0.00 0.04 0.04 99 1020.6
20260830225209 67 157 0.0 0.0 0.00 0.04 0.04 99 1020.3
20260830224708 67 167 0.0 0.0 0.00 0.04 0.04 99 1020.6
20260830224204 67 155 0.0 0.0 0.00 0.04 0.04 99 1020.6
20260830223701 67 154 0.0 0.0 0.00 0.04 0.04 99 1020.6
20260830223156 67 142 0.0 0.0 0.00 0.04 0.04 99 1020.3
20260830222656 67 165 0.0 0.0 0.00 0.04 0.04 99 1020.6
20260830222151 67 174 1.0 2.0 0.00 0.04 0.04 99 1020.6
20260830221647 67 170 0.0 0.0 0.00 0.04 0.04 99 1020.3
20260830221143 66 164 0.0 0.0 0.00 0.04 0.04 99 1020.6
20260830220639 66 166 0.0 0.0 0.00 0.04 0.04 99 1020.3
20260830220138 66 181 1.0 1.0 0.00 0.04 0.04 99 1020.3
20260830215637 66 157 0.0 0.0 0.00 0.04 0.04 99 1020.3
20260830215137 66 177 1.0 1.0 0.00 0.04 0.04 99 1020.3
20260830214632 66 169 0.0 0.0 0.00 0.04 0.04 99 1020.3
20260830214127 66 165 0.0 0.0 0.00 0.04 0.04 99 1020.3
20260830213626 66 165 0.0 0.0 0.00 0.04 0.04 99 1020.6
20260830213122 66 165 1.0 1.0 0.00 0.04 0.04 99 1020.3
20260830212618 66 164 0.0 0.0 0.00 0.04 0.04 99 1020.6
20260830212113 66 138 0.0 0.0 0.00 0.04 0.04 99 1020.6
20260830211608 66 159 0.0 0.0 0.00 0.04 0.04 99 1020.3
20260830211107 66 164 0.0 0.0 0.00 0.04 0.04 99 1020.6
20260830210602 66 157 0.0 0.0 0.00 0.04 0.04 99 1020.6
20260830205559 66 159 0.0 0.0 0.00 0.04 0.04 99 1021.0
20260830205055 66 162 0.0 0.0 0.00 0.04 0.04 99 1021.0
20260830204554 66 161 0.0 0.0 0.00 0.04 0.04 99 1020.6
20260830204053 66 151 0.0 1.0 0.00 0.04 0.04 99 1021.0